Weather History for Langdon, ND

Change the Weather History Date:

Sunday, September 1, 2013

  Actual Average (KDVL) Record (KDVL)
Temperature  
Mean Temperature 57 °F -  
Max Temperature 66 °F 72 °F 91 °F (1948)
Min Temperature 48 °F 49 °F 36 °F (1974)
Degree Days  
Heating Degree Days 8    
Growing Degree Days 7 (Base 50)    
Moisture  
Dew Point 41 °F    
Average Humidity 55    
Maximum Humidity 59    
Minimum Humidity 52    
Precipitation  
Precipitation 0.01 in - - ()
Sea Level Pressure  
Sea Level Pressure 30.03 in    
Wind  
Wind Speed 13 mph (North)    
Max Wind Speed 21 mph    
Max Gust Speed 24 mph    
Visibility 10 miles    
Events Rain    
Averages and records for this station are not official NWS values.
T = Trace of Precipitation, MM = Missing Value Source: NWS Daily Summary

Daily Weather History Graph

Daily Weather History Graph

Search for Another Location

Airport:

Trip Planner

Search our weather history database for the weather conditions in past years. The results will help you decide how hot, cold, wet, or windy it might be!

Date:

Astronomy

Sep. 01, 2013 Rise Set
Actual Time 6:50 AM CDT 8:15 PM CDT
Civil Twilight 6:18 AM CDT 8:47 PM CDT
Nautical Twilight 5:38 AM CDT 9:27 PM CDT
Astronomical Twilight 4:55 AM CDT 10:09 PM CDT
Moon 3:02 AM CDT (9/1) 6:03 PM CDT (9/1)
Length of Visible Light 14h 29m
Length of Day
13h 24m
Waning Crescent, 13% of the Moon is Illuminated
Sep 1
Waning Crescent
Sep 5
New
Sep 12
First Quarter
Sep 19
Full
Sep 26
Last Quarter

Hourly Weather History & Observations

Time (CDT) Temp. Dew Point Humidity Pressure Visibility Wind Dir Wind Speed Gust Speed Precip Events Conditions
12:15 AM 59.0 °F 42.8 °F 55% 29.90 in 10.0 mi North 10.4 mph - N/A   Mostly Cloudy
12:35 AM 59.0 °F 42.8 °F 55% 29.89 in 10.0 mi North 16.1 mph 20.7 mph N/A   Mostly Cloudy
12:55 AM 57.2 °F 41.0 °F 55% 29.90 in 10.0 mi North 12.7 mph - N/A   Overcast
1:15 AM 57.2 °F 41.0 °F 55% 29.90 in 10.0 mi North 16.1 mph 23.0 mph N/A   Overcast
1:35 AM 57.2 °F 41.0 °F 55% 29.91 in 10.0 mi North 20.7 mph - N/A   Overcast
1:55 AM 57.2 °F 41.0 °F 55% 29.91 in 5.0 mi North 16.1 mph - N/A   Haze
2:15 AM 57.2 °F 41.0 °F 55% 29.92 in 10.0 mi NNW 11.5 mph - N/A   Overcast
2:35 AM 55.4 °F 41.0 °F 58% 29.93 in 10.0 mi NNW 15.0 mph 19.6 mph N/A   Overcast
2:55 AM 55.4 °F 39.2 °F 54% 29.94 in 7.0 mi NNW 12.7 mph 17.3 mph N/A   Overcast
3:15 AM 55.4 °F 39.2 °F 54% 29.93 in 1.8 mi North 12.7 mph - N/A Rain Light Rain
3:35 AM 55.4 °F 39.2 °F 54% 29.93 in 2.0 mi NNW 12.7 mph 20.7 mph 0.01 in Rain Light Rain
3:55 AM 55.4 °F 39.2 °F 54% 29.94 in 4.0 mi North 11.5 mph - 0.01 in Rain Light Rain
4:15 AM 55.4 °F 39.2 °F 54% 29.95 in 10.0 mi North 13.8 mph 19.6 mph N/A   Overcast
4:35 AM 53.6 °F 39.2 °F 58% 29.95 in 10.0 mi North 16.1 mph 23.0 mph N/A   Mostly Cloudy
4:55 AM 53.6 °F 37.4 °F 54% 29.96 in 10.0 mi North 13.8 mph 21.9 mph N/A   Mostly Cloudy
5:15 AM 53.6 °F 37.4 °F 54% 29.96 in 10.0 mi North 13.8 mph 18.4 mph N/A   Mostly Cloudy
5:35 AM 51.8 °F 35.6 °F 54% 29.97 in 10.0 mi North 11.5 mph - N/A   Mostly Cloudy
5:55 AM 51.8 °F 35.6 °F 54% 29.98 in 10.0 mi North 12.7 mph - N/A   Overcast
6:15 AM 51.8 °F 35.6 °F 54% 29.98 in 10.0 mi North 13.8 mph - N/A   Overcast
6:35 AM 51.8 °F 35.6 °F 54% 29.99 in 10.0 mi North 13.8 mph - N/A   Mostly Cloudy
6:55 AM 51.8 °F 35.6 °F 54% 29.99 in 10.0 mi North 11.5 mph - N/A   Overcast
7:15 AM 51.8 °F 35.6 °F 54% 30.00 in 10.0 mi North 12.7 mph - N/A   Overcast
7:35 AM 51.8 °F 35.6 °F 54% 30.01 in 10.0 mi North 13.8 mph - N/A   Overcast
7:55 AM 51.8 °F 35.6 °F 54% 30.02 in 10.0 mi North 13.8 mph - N/A   Overcast
8:15 AM 51.8 °F 37.4 °F 58% 30.02 in 10.0 mi North 15.0 mph - N/A   Overcast
8:35 AM 51.8 °F 37.4 °F 58% 30.02 in 10.0 mi North 16.1 mph - N/A   Overcast
8:55 AM 51.8 °F 37.4 °F 58% 30.03 in 10.0 mi NNE 18.4 mph - N/A   Overcast
9:15 AM 53.6 °F 37.4 °F 54% 30.04 in 10.0 mi North 16.1 mph - N/A   Overcast
9:35 AM 53.6 °F 39.2 °F 58% 30.04 in 10.0 mi North 18.4 mph 24.2 mph N/A   Overcast
9:55 AM 53.6 °F 39.2 °F 58% 30.05 in 10.0 mi North 18.4 mph - N/A   Overcast
10:15 AM 55.4 °F 39.2 °F 54% 30.05 in 10.0 mi North 17.3 mph 24.2 mph N/A   Mostly Cloudy
10:35 AM 57.2 °F 41.0 °F 55% 30.05 in 10.0 mi North 18.4 mph 24.2 mph N/A   Partly Cloudy
10:55 AM 57.2 °F 41.0 °F 55% 30.05 in 10.0 mi North 18.4 mph 24.2 mph N/A   Clear
11:15 AM 59.0 °F 42.8 °F 55% 30.06 in 10.0 mi North 16.1 mph 23.0 mph N/A   Clear
11:35 AM 59.0 °F 44.6 °F 59% 30.06 in 10.0 mi North 15.0 mph 21.9 mph N/A   Clear
11:55 AM 59.0 °F 44.6 °F 59% 30.07 in 10.0 mi NNE 13.8 mph 21.9 mph N/A   Clear
12:15 PM 62.6 °F 46.4 °F 55% 30.07 in 10.0 mi North 13.8 mph 20.7 mph N/A   Clear
12:35 PM 62.6 °F 46.4 °F 55% 30.07 in 10.0 mi North 12.7 mph 19.6 mph N/A   Clear
12:55 PM 62.6 °F 46.4 °F 55% 30.07 in 10.0 mi NNW 10.4 mph - N/A   Clear
1:15 PM 64.4 °F 48.2 °F 56% 30.07 in 10.0 mi North 15.0 mph 20.7 mph N/A   Clear
1:35 PM 64.4 °F 48.2 °F 56% 30.07 in 10.0 mi North 15.0 mph - N/A   Clear
1:55 PM 66.2 °F 50.0 °F 56% 30.07 in 10.0 mi North 11.5 mph 20.7 mph N/A   Clear
2:15 PM 66.2 °F 50.0 °F 56% 30.07 in 10.0 mi North 11.5 mph 21.9 mph N/A   Clear
2:35 PM 66.2 °F 50.0 °F 56% 30.07 in 10.0 mi NNE 10.4 mph 18.4 mph N/A   Clear
2:55 PM 66.2 °F 50.0 °F 56% 30.07 in 10.0 mi NNE 13.8 mph - N/A   Clear
3:15 PM 66.2 °F 50.0 °F 56% 30.06 in 10.0 mi NNE 12.7 mph 18.4 mph N/A   Clear
3:35 PM 66.2 °F 50.0 °F 56% 30.06 in 10.0 mi North 10.4 mph 16.1 mph N/A   Clear
3:55 PM 66.2 °F 50.0 °F 56% 30.06 in 10.0 mi NE 13.8 mph 19.6 mph N/A   Clear
4:15 PM 66.2 °F 50.0 °F 56% 30.06 in 10.0 mi NNE 15.0 mph 20.7 mph N/A   Clear
4:35 PM 66.2 °F 48.2 °F 52% 30.06 in 10.0 mi NNE 12.7 mph - N/A   Clear
4:55 PM 66.2 °F 48.2 °F 52% 30.07 in 10.0 mi NNE 12.7 mph 19.6 mph N/A   Clear
5:15 PM 64.4 °F 48.2 °F 56% 30.07 in 10.0 mi NNE 10.4 mph 18.4 mph N/A   Clear
5:35 PM 64.4 °F 48.2 °F 56% 30.07 in 10.0 mi NE 13.8 mph - N/A   Clear
5:55 PM 64.4 °F 48.2 °F 56% 30.07 in 10.0 mi NNE 10.4 mph - N/A   Clear
6:15 PM 64.4 °F 48.2 °F 56% 30.07 in 10.0 mi NNE 10.4 mph - N/A   Clear
6:35 PM 64.4 °F 48.2 °F 56% 30.07 in 10.0 mi NE 9.2 mph - N/A   Clear
6:55 PM 64.4 °F 48.2 °F 56% 30.07 in 10.0 mi NE 9.2 mph - N/A   Clear
7:15 PM 62.6 °F 46.4 °F 55% 30.07 in 10.0 mi NNE 9.2 mph - N/A   Clear
7:35 PM 62.6 °F 46.4 °F 55% 30.07 in 10.0 mi NNE 9.2 mph - N/A   Clear
7:55 PM 59.0 °F 44.6 °F 59% 30.08 in 10.0 mi NNE 5.8 mph - N/A   Clear
8:15 PM 57.2 °F 41.0 °F 55% 30.08 in 10.0 mi North 4.6 mph - N/A   Clear
8:35 PM 53.6 °F 39.2 °F 58% 30.08 in 10.0 mi NNW 3.5 mph - N/A   Clear
8:55 PM 51.8 °F 35.6 °F 54% 30.08 in 10.0 mi North 4.6 mph - N/A   Clear
9:15 PM 51.8 °F 35.6 °F 54% 30.08 in 10.0 mi North 4.6 mph - N/A   Clear
9:35 PM 50.0 °F 35.6 °F 58% 30.08 in 10.0 mi North 4.6 mph - N/A   Clear
9:55 PM 48.2 °F 33.8 °F 58% 30.08 in 10.0 mi North 3.5 mph - N/A   Clear
10:15 PM 48.2 °F 32.0 °F 54% 30.09 in 10.0 mi North 4.6 mph - N/A   Clear
10:35 PM 48.2 °F 32.0 °F 54% 30.10 in 10.0 mi NE 6.9 mph - N/A   Clear
10:55 PM 50.0 °F 35.6 °F 58% 30.10 in 10.0 mi NE 4.6 mph - N/A   Clear
11:15 PM 48.2 °F 32.0 °F 54% 30.10 in 10.0 mi Calm Calm - N/A   Clear
11:35 PM 48.2 °F 32.0 °F 54% 30.10 in 10.0 mi ENE 4.6 mph - N/A   Clear
11:55 PM 48.2 °F 32.0 °F 54% 30.09 in 10.0 mi ENE 4.6 mph - N/A   Clear